Estación de Lontue

Ultimos registro cada 15 minutos 90
Estación Fecha / Hora Temperatura Humedad Lluvia Velocidad Dirección Radiación Presion
90 Lontue 02-05-2026 22:15 6,9 88,3 0 0 84 0,6 992,9
89 Lontue 02-05-2026 22:00 6,7 88,6 0 0,8 87 0,6 992,9
88 Lontue 02-05-2026 21:45 7,1 87,6 0 0 86 0,6 993
87 Lontue 02-05-2026 21:30 7,4 87,1 0 0,4 70 0,6 992,9
86 Lontue 02-05-2026 21:15 8,2 86,2 0 0,4 81 0,6 992,9
85 Lontue 02-05-2026 21:00 7,3 87,9 0 0 173 0,6 992,7
84 Lontue 02-05-2026 20:45 7,5 87,3 0 0 173 0,6 992,5
83 Lontue 02-05-2026 20:30 8,1 88 0 0,4 146 0,6 992,5
82 Lontue 02-05-2026 20:15 8,2 84,2 0 0 110 0,6 992,7
81 Lontue 02-05-2026 20:00 9,5 82,3 0 0 110 0,6 992,5
80 Lontue 02-05-2026 19:45 9,4 82,9 0 1,1 110 0,6 992,5
79 Lontue 02-05-2026 19:30 9,2 82,9 0 1,5 110 0,6 992,4
78 Lontue 02-05-2026 19:15 9,6 81,5 0 1,1 131 0,6 992,4
77 Lontue 02-05-2026 19:00 10,3 80,6 0 1,5 143 0,6 992,3
76 Lontue 02-05-2026 18:45 10,5 81,4 0 0,4 132 0,6 991,5
75 Lontue 02-05-2026 18:30 11 81,6 0 0 140 0,6 991,1
74 Lontue 02-05-2026 18:15 12 76,5 0 0 142 0,6 991,1
73 Lontue 02-05-2026 18:00 13,2 71,9 0 0,4 131 1,9 990,7
72 Lontue 02-05-2026 17:45 15,3 66,8 0 0,8 128 10,6 990,5
71 Lontue 02-05-2026 17:30 16,4 63,3 0 1,5 128 15,6 990,5
70 Lontue 02-05-2026 17:15 17,2 60,6 0 1,1 145 23,1 990,7
69 Lontue 02-05-2026 17:00 17,8 57,7 0 1,5 138 111,9 990,7
68 Lontue 02-05-2026 16:45 17,8 57,8 0 1,5 136 148,1 990,7
67 Lontue 02-05-2026 16:30 17,8 58,7 0 2,3 133 208,1 990,6
66 Lontue 02-05-2026 16:15 18 58,9 0 1,9 145 248,1 990,7
65 Lontue 02-05-2026 16:00 18,1 56,4 0 2,7 138 264,4 990,8
64 Lontue 02-05-2026 15:45 17,9 56,8 0 2,7 136 63,1 990,7
63 Lontue 02-05-2026 15:30 18,3 54,3 0 2,3 170 383,1 990,8
62 Lontue 02-05-2026 15:15 18 54,5 0 1,9 166 421,9 990,7
61 Lontue 02-05-2026 15:00 17,6 56,1 0 2,3 139 388,1 990,6
60 Lontue 02-05-2026 14:45 17,5 58,6 0 1,9 154 488,1 990,6
59 Lontue 02-05-2026 14:30 17,5 55,6 0 1,9 168 519,4 990,7
58 Lontue 02-05-2026 14:15 17,2 59,4 0 1,5 181 545,6 990,8
57 Lontue 02-05-2026 14:00 16,8 57,9 0 1,1 173 568,1 991,2
56 Lontue 02-05-2026 13:45 16 55 0 0,8 121 586,9 991,2
55 Lontue 02-05-2026 13:30 15 67,8 0 1,1 79 596,9 991,5
54 Lontue 02-05-2026 13:15 13,9 71,7 0 2,3 77 611,9 991,8
53 Lontue 02-05-2026 13:00 12,9 75,3 0 2,3 80 616,9 992,1
52 Lontue 02-05-2026 12:45 12,1 74,8 0 2,3 84 624,4 992,4
51 Lontue 02-05-2026 12:30 10,6 78,3 0 2,3 80 621,9 992,6
50 Lontue 02-05-2026 12:15 9,8 80,2 0 2,7 90 616,9 992,9
49 Lontue 02-05-2026 12:00 9,3 80,9 0 3 87 613,1 993,1
48 Lontue 02-05-2026 11:45 8,9 81,3 0 3,8 104 601,9 993,3
47 Lontue 02-05-2026 11:30 8,9 81,3 0 3,4 115 589,4 993,6
46 Lontue 02-05-2026 11:15 8,6 80,9 0 3,8 124 574,4 993,9
45 Lontue 02-05-2026 11:00 8,2 80,4 0 3 121 560,6 993,9
44 Lontue 02-05-2026 10:45 8,9 81,9 0 1,5 150 524,4 994,2
43 Lontue 02-05-2026 10:30 8,4 82,3 0 2,3 129 55,6 994,2
42 Lontue 02-05-2026 10:15 7,9 82,9 0 1,9 131 463,1 994,4
41 Lontue 02-05-2026 10:00 7,2 85,3 0 1,9 135 355,6 994,4
40 Lontue 02-05-2026 09:45 6,4 87,9 0 1,5 152 321,9 994,5
39 Lontue 02-05-2026 09:30 6 88,2 0 1,5 150 85,6 994,7
38 Lontue 02-05-2026 09:15 6 87,8 0 1,5 153 130,6 994,6
37 Lontue 02-05-2026 09:00 5,3 90,1 0 1,9 171 66,9 994,4
36 Lontue 02-05-2026 08:45 5,5 90,2 0 1,9 170 101,9 994,6
35 Lontue 02-05-2026 08:30 5,3 91,2 0 1,9 166 86,9 994,6
34 Lontue 02-05-2026 08:15 5,4 91,4 0 1,1 175 30,6 994,5
33 Lontue 02-05-2026 08:00 5,4 92,1 0 2,3 160 23,1 994,5
32 Lontue 02-05-2026 07:45 5,4 92,7 0 1,9 164 13,1 994,4
31 Lontue 02-05-2026 07:30 5,2 93,1 0 2,7 173 1,9 994,4
30 Lontue 02-05-2026 07:15 5,3 93,2 0 2,3 171 0,6 994,4
29 Lontue 02-05-2026 07:00 5,5 93,2 0 1,5 159 0,6 994,1
28 Lontue 02-05-2026 06:45 5,5 93,2 0 0,8 145 0,6 994,2
27 Lontue 02-05-2026 06:30 5,1 93,2 0 0 136 0,6 994,3
26 Lontue 02-05-2026 06:15 4,5 92,8 0 0 136 0,6 994,3
25 Lontue 02-05-2026 06:00 4,4 92,3 0 0 136 0,6 994,4
24 Lontue 02-05-2026 05:45 4,6 92 0 0 140 0,6 994,4
23 Lontue 02-05-2026 05:30 4,9 91,8 0 0 139 0,6 994,6
22 Lontue 02-05-2026 05:15 5,2 91,3 0 0 139 0,6 994,6
21 Lontue 02-05-2026 05:00 5,7 91,5 0 0 140 0,6 994,7
20 Lontue 02-05-2026 04:45 5,9 92 0 0 128 0,6 994,6
19 Lontue 02-05-2026 04:30 5,7 92,1 0 0 132 0,6 994,9
18 Lontue 02-05-2026 04:15 5,4 91,4 0 0 128 0,6 995
17 Lontue 02-05-2026 04:00 5,7 91,1 0 0 147 0,6 995,3
16 Lontue 02-05-2026 03:45 5,9 91,3 0 0 156 0,6 995,3
15 Lontue 02-05-2026 03:30 6,1 90,9 0 0 157 0,6 995,4
14 Lontue 02-05-2026 03:15 6,4 90,6 0 0,4 153 0,6 995,6
13 Lontue 02-05-2026 03:00 6,6 90,6 0 0,4 164 0,6 995,6
12 Lontue 02-05-2026 02:45 6,6 91 0 0 156 0,6 995,8
11 Lontue 02-05-2026 02:30 6,6 90,8 0 0,4 152 0,6 995,9
10 Lontue 02-05-2026 02:15 6,6 91,9 0 0,4 129 0,6 995,9
9 Lontue 02-05-2026 02:00 6 91,3 0 0 131 0,6 996
8 Lontue 02-05-2026 01:45 6,3 91,3 0 0 129 0,6 996,2
7 Lontue 02-05-2026 01:30 6,5 91,6 0 0 121 0,6 996,2
6 Lontue 02-05-2026 01:15 6,6 91,2 0 0,4 119 0,6 996,4
5 Lontue 02-05-2026 01:00 6,6 91,1 0 0 119 0,6 996,7
4 Lontue 02-05-2026 00:45 6,7 90,6 0 0 121 0,6 996,7
3 Lontue 02-05-2026 00:30 7 90,4 0 0 121 0,6 997
2 Lontue 02-05-2026 00:15 7,2 89,4 0 0 124 0,6 997,2
1 Lontue 02-05-2026 00:00 7,7 88,7 0 0 129 0,6 997,3